Location: Black River Observatory
(43.1000°N, 82.6200°W)
Time: 10:43:28
(UTC-04:00)

Daily predictions for brighter satellites

Satellite Brightness Start Highest point End
(mag) Time Altitude Azimuth Time Altitude Azimuth Time Altitude Azimuth
NOAA 12 4.1 19:37:29 10° SSE 19:42:39 63° ENE 19:47:51 10° N
Cosmos 1656 Rocket 3.7 19:39:32 10° NNW 19:45:12 75° ENE 19:50:45 10° SSE
Milstar 3 Cent rocket 4.2 19:43:21 10° SSW 19:45:41 12° S 19:47:45 10° SSE
ATLAS 2AS CENTAUR R/B 4.2 19:39:30 10° NNW 19:46:04 26° NNE 19:52:22 10° E
Geosat 4.4 19:43:02 10° SE 19:47:48 45° NE 19:52:35 10° NNW
METEOR-M 4.4 19:46:07 10° S 19:51:28 78° WSW 19:56:51 10° NNW
FENGYUN 3A 3.7 19:47:06 10° SSE 19:52:23 65° ENE 19:57:43 10° N
NOSS 3-1 (A) 4.1 19:48:54 10° NW 19:56:30 79° NE 20:04:57 10° SE
Cosmos 841 Rocket 3.4 19:55:43 10° SSW 20:00:51 85° ESE 20:06:01 10° NNE
CZ-4 R/B 4.3 19:58:23 10° SSW 20:01:43 23° W 20:05:06 10° NW
H-2A R/B 3.2 19:58:26 10° SE 20:01:54 38° ENE 20:05:27 10° N
Cosmos 1544 3.8 19:59:04 10° SSE 20:02:17 31° E 20:05:31 10° NNE
SJ-6B 3.4 19:59:56 10° SE 20:03:36 37° ENE 20:07:12 10° N
NOSS 3-1 (C) 4.3 19:56:21 10° NW 20:03:59 78° WSW 20:12:25 10° SSE
Cosmos 2084 4.4 20:00:57 10° WSW 20:04:50 45° NW 20:08:35 10° NNE
USA 81 4.1 20:00:45 10° N 20:06:04 88° E 20:11:22 10° S
COSMO-SKYMED 1 3.5 20:02:37 10° N 20:06:51 52° WNW 20:11:04 10° SSW
Cosmos 1953 3.9 20:06:13 10° SE 20:08:47 16° E 20:11:21 10° NE
Cosmos 540 Rocket 3.6 20:05:05 10° S 20:10:00 51° ESE 20:14:57 10° NNE
Cosmos 1378 4.1 20:09:20 10° NNW 20:13:02 52° W 20:16:42 10° S
BREEZE-M DEB (TANK) 4.0 20:11:46 10° WNW 20:15:16 46° NNE 20:25:06 12° E
SL-27 R/B 3.5 20:12:34 10° SSE 20:15:37 26° E 20:18:44 10° NE
Cosmos 1763 Rocket 4.4 20:13:22 10° SW 20:18:20 51° WNW 20:23:26 10° N
Cosmos 1707 4.4 20:17:00 10° NNW 20:20:41 39° W 20:24:20 10° SSW
Cosmos 304 Rocket 4.2 20:15:57 10° SSW 20:20:43 66° WNW 20:25:32 10° NNE
BREEZE M DEB (TANK) 3.7 20:13:26 10° W 20:21:07 45° NNW 20:23:46 12° NE
SJ 16-02 1.8 20:17:18 10° N 20:21:28 40° ENE 20:24:56 14° SE
In-Cosmos 22 4.2 20:15:55 10° N 20:21:38 69° ENE 20:27:22 10° SSE
COSMOS 2406 3.2 20:16:31 10° SSW 20:22:13 80° ESE 20:28:00 10° NNE
HJ-1C 3.4 20:20:50 10° SSE 20:24:07 56° ENE 20:27:26 10° N
Cosmos 1356 Rocket 3.8 20:20:11 10° NNW 20:24:29 72° W 20:28:46 10° S
Cosmos 1674 3.8 20:21:43 10° NNE 20:24:47 23° ENE 20:25:44 21° E
Meteor 1-22 Rocket 4.1 20:20:50 10° S 20:26:30 81° E 20:31:59 10° NNE
Cosmos 1766 3.2 20:24:57 10° S 20:28:52 85° E 20:32:47 10° N
Cosmos 2228 4.2 20:29:13 10° SSW 20:33:24 46° WNW 20:37:35 10° N
Resurs 1-3 4.1 20:33:13 19° SE 20:35:50 38° ENE 20:39:54 10° N
ISS -3.8 20:36:12 10° SW 20:39:26 60° SE 20:40:34 35° ENE
FengYun 1-2 T 4.4 20:34:24 10° S 20:40:00 79° WSW 20:45:36 10° NNW
ALOS 3.7 20:35:45 10° SSW 20:40:08 40° W 20:44:33 10° NNW
Cosmos 2074 Rocket 4.2 20:34:52 10° SSW 20:41:04 75° W 20:47:18 10° N
Cosmos 2154 Rocket 4.0 20:35:24 10° S 20:41:29 59° E 20:47:38 10° NNE
MOS 1-B Rocket 4.1 20:37:07 12° SE 20:42:22 48° ENE 20:47:45 10° N
BREEZE-M DEB (TANK) 3.6 20:33:09 10° WSW 20:45:52 68° SSE 20:48:26 26° E
Meteor 1-21 Rocket 4.4 20:42:27 10° N 20:48:01 50° ENE 20:51:41 20° SE
Elektron 1 3.6 20:48:36 10° NW 20:51:53 86° SW 20:52:33 49° SE
Spot 2 Rocket 3.5 20:50:59 22° SE 20:54:05 57° ENE 20:59:02 10° N
Cosmos 1758 3.2 20:50:13 10° S 20:54:11 65° E 20:58:09 10° NNE
Cosmos 1812 Rocket 3.6 20:51:34 10° S 20:56:02 84° W 21:00:32 10° N
Cosmos 2341 Rocket 4.0 20:50:43 10° SSE 20:56:44 55° E 21:02:47 10° NNE
Cosmos 2082 Rocket4.521:03:56NE21:03:56NE20:53:28SSE
Cosmos 1805 3.4 20:55:14 10° SSW 20:59:07 72° W 21:03:02 10° N
ATLAS 5 CENTAUR R/B 3.9 20:57:34 10° S 20:57:40 10° S 20:57:40 10° S
GP-B 3.0 20:59:21 10° N 21:03:49 85° E 21:08:14 10° S
Resurs 01 Rocket 1.5 21:01:55 25° SSE 21:04:29 83° ENE 21:08:55 10° NNW
Cosmos 2278 3.9 20:59:49 10° NNW 21:05:23 53° ENE 21:07:08 39° ESE
CZ-2D R/B 3.4 21:04:04 21° S 21:06:27 70° W 21:10:17 10° NNW
KORONAS-FOTON 4.0 21:05:44 10° N 21:08:59 51° NE 21:08:59 51° NE
Nadezhda 3 Rocket 4.0 21:03:41 10° N 21:10:01 85° W 21:16:14 10° S
Cosmos 1939 Rocket 3.3 21:12:33 43° NE 21:12:33 43° NE 21:15:42 10° N
Cosmos 2322 Rocket 4.4 21:13:56 10° NNE 21:14:40 10° NE 21:14:57 10° NE
Cosmos 1656 3.9 21:09:30 10° NNW 21:15:04 52° ENE 21:16:08 46° E
Cosmos 1470 4.0 21:21:42 31° NNE 21:21:42 31° NNE 21:23:54 10° NNE
Cosmos 2218 Rocket 4.2 21:20:07 44° E 21:20:26 44° E 21:26:15 10° NNE
Cosmos 1697 Rocket 3.1 21:17:15 10° NNW 21:22:39 42° ENE 21:22:57 42° ENE
Cosmos 2285 Rocket 3.9 21:17:22 10° S 21:23:43 66° ESE 21:30:07 10° NNE
Cosmos 1809 Rocket 4.3 21:18:45 10° S 21:24:49 66° E 21:30:52 10° NNE
Cosmos 1980 Rocket 3.3 21:20:03 10° N 21:24:38 28° NE 21:24:38 28° NE
Envisat 3.0 21:24:15 32° S 21:26:39 78° WSW 21:31:46 10° NNW
Cosmos 1295 Rocket 4.3 21:21:52 10° S 21:27:58 83° E 21:34:05 10° N
Okean 3 Rocket 3.6 21:24:08 10° N 21:28:38 80° W 21:29:16 64° SSW
YAOGAN 6 4.4 21:33:50 24° N 21:33:50 24° N 21:35:26 10° N
Meteor 2-15 4.3 21:32:11 10° N 21:38:16 80° E 21:39:38 56° SSE
ATLAS 2AS CENTAUR R/B 2.9 21:30:28 10° NW 21:38:33 74° NE 21:40:36 52° ESE
SL-8 Rocket 3.8 21:38:36 42° S 21:40:49 76° E 21:46:59 10° N
Meteor 2-14 Rocket 4.3 21:43:34 67° ESE 21:43:57 69° E 21:50:04 10° NNE
Cosmos 1953 3.8 21:41:06 10° SW 21:44:52 37° WNW 21:48:42 10° N
ARGOS 4.4 21:46:45 29° NNE 21:46:45 29° NNE 21:49:59 10° N
Cosmos 1727 Rocket 4.2 21:38:59 10° N 21:44:39 51° ENE 21:44:39 51° ENE
Meteor 2-21 Rocket 4.3 21:50:33 66° SSE 21:51:28 82° E 21:57:37 10° N
SL-16 R/B 4.1 21:50:25 10° N 21:53:07 18° NNE 21:53:07 18° NNE
H-2A R/B 3.9 21:57:09 18° NNE 21:57:09 18° NNE 21:58:53 10° N
Cosmos 1076 Rocket 4.4 21:51:19 10° NNW 21:55:13 47° W 21:55:13 47° W
SJ 16-02 3.8 21:56:41 10° NW 21:59:44 19° W 22:01:59 13° SW
Cosmos 864 Rocket 4.5 22:08:51 74° NNE 22:08:51 74° NNE 22:14:35 10° N
ISS -0.3 22:13:14 10° W 22:13:15 10° W 22:13:15 10° W
FALCON 9 R/B 4.3 22:35:14 10° WSW 22:36:10 16° WSW 22:36:10 16° WSW
Cosmos 2082 Rocket 4.0 22:45:39 25° N 22:45:39 25° N 22:48:11 10° NNE
Cosmos 2322 Rocket 4.1 22:54:37 10° NNW 22:56:45 23° N 22:56:45 23° N
Cosmos 1980 Rocket 4.0 23:03:41 10° NW 23:06:24 27° NW 23:06:24 27° NW
ATLAS 2AS CENTAUR R/B 4.4 23:22:33 10° NW 23:28:02 26° W 23:28:02 26° W
